Zurück zum Katalog

DIAPASON

D1-A

AktivWissenschaftUNKNOWN
NORAD 2016·PAYLOAD·🇫🇷 France

Gestartet Feb 17, 1966 von Hammaguir Space Track Range

Loading…

Nächste Überflüge (nächste 24 Stunden)

TLE

AktuellSource: Space-Track

Epoche: Sep 14, 2026, 10:00 UTC

1 02016U 66013A   26257.41685821  .00001209  00000-0  33697-3 0  9995
2 02016  34.0949 307.4072 1156291 230.9147 118.2944 12.66693476751769

Verfolge DIAPASON in Echtzeit mit AllMySat

Download on the App Store